Year,Month,Day,Hour,Minute,Value (Times are PST for windspeed in km/hr)
2016,10,07,00,00,25.50
2016,10,07,00,01,27.10
2016,10,07,00,02,26.80
2016,10,07,00,03,21.80
2016,10,07,00,04,22.40
2016,10,07,00,05,24.90
2016,10,07,00,06,24.20
2016,10,07,00,07,22.90
2016,10,07,00,08,23.80
2016,10,07,00,09,24.30
2016,10,07,00,10,21.70
2016,10,07,00,11,22.90
2016,10,07,00,12,21.70
2016,10,07,00,13,28.80
2016,10,07,00,14,25.20
2016,10,07,00,15,26.80
2016,10,07,00,16,19.90
2016,10,07,00,17,26.00
2016,10,07,00,18,25.80
2016,10,07,00,19,22.50
2016,10,07,00,20,25.40
2016,10,07,00,21,22.50
2016,10,07,00,22,22.60
2016,10,07,00,23,25.20
2016,10,07,00,24,19.80
2016,10,07,00,25,18.10
2016,10,07,00,26,22.70
2016,10,07,00,27,21.00
2016,10,07,00,28,18.90
2016,10,07,00,29,17.40
2016,10,07,00,30,17.60
2016,10,07,00,31,19.20
2016,10,07,00,32,19.30
2016,10,07,00,33,21.30
2016,10,07,00,34,23.80
2016,10,07,00,35,21.10
2016,10,07,00,36,13.90
2016,10,07,00,37,17.20
2016,10,07,00,38,18.10
2016,10,07,00,39,15.50
2016,10,07,00,40,19.50
2016,10,07,00,41,14.20
2016,10,07,00,42,23.10
2016,10,07,00,43,16.70
2016,10,07,00,44,18.20
2016,10,07,00,45,16.60
2016,10,07,00,46,18.20
2016,10,07,00,47,14.60
2016,10,07,00,48,19.70
2016,10,07,00,49,28.20
2016,10,07,00,50,17.90
2016,10,07,00,51,22.30
2016,10,07,00,52,24.80
2016,10,07,00,53,14.80
2016,10,07,00,54,17.20
2016,10,07,00,55,18.90
2016,10,07,00,56,21.70
2016,10,07,00,57,15.90
2016,10,07,00,58,14.80
2016,10,07,00,59,18.50
2016,10,07,01,00,27.40
2016,10,07,01,01,23.60
2016,10,07,01,02,17.40
2016,10,07,01,03,16.50
2016,10,07,01,04,16.20
2016,10,07,01,05,14.60
2016,10,07,01,06,8.80
2016,10,07,01,07,17.80
2016,10,07,01,08,12.10
2016,10,07,01,09,9.70
2016,10,07,01,10,8.60
2016,10,07,01,11,7.60
2016,10,07,01,12,8.40
2016,10,07,01,13,13.10
2016,10,07,01,14,3.90
2016,10,07,01,15,10.70
2016,10,07,01,16,5.20
2016,10,07,01,17,5.60
2016,10,07,01,18,13.30
2016,10,07,01,19,9.00
2016,10,07,01,20,10.00
2016,10,07,01,21,6.70
2016,10,07,01,22,9.20
2016,10,07,01,23,14.00
2016,10,07,01,24,9.30
2016,10,07,01,25,10.40
2016,10,07,01,26,4.70
2016,10,07,01,27,5.90
2016,10,07,01,28,5.10
2016,10,07,01,29,6.80
2016,10,07,01,30,8.00
2016,10,07,01,31,8.90
2016,10,07,01,32,9.10
2016,10,07,01,33,8.20
2016,10,07,01,34,8.30
2016,10,07,01,35,10.70
2016,10,07,01,36,12.20
2016,10,07,01,37,10.60
2016,10,07,01,38,13.00
2016,10,07,01,39,12.30
2016,10,07,01,40,10.80
2016,10,07,01,41,11.20
2016,10,07,01,42,9.10
2016,10,07,01,43,6.30
2016,10,07,01,44,11.40
2016,10,07,01,45,12.80
2016,10,07,01,46,10.90
2016,10,07,01,47,10.00
2016,10,07,01,48,12.30
2016,10,07,01,49,12.70
2016,10,07,01,50,5.90
2016,10,07,01,51,4.20
2016,10,07,01,52,2.10
2016,10,07,01,53,8.10
2016,10,07,01,54,3.40
2016,10,07,01,55,3.20
2016,10,07,01,56,10.60
2016,10,07,01,57,13.20
2016,10,07,01,58,9.50
2016,10,07,01,59,11.00
2016,10,07,02,00,10.70
2016,10,07,02,01,10.90
2016,10,07,02,02,10.30
2016,10,07,02,03,13.40
2016,10,07,02,04,11.80
2016,10,07,02,05,12.90
2016,10,07,02,06,12.50
2016,10,07,02,07,13.20
2016,10,07,02,08,10.00
2016,10,07,02,09,7.80
2016,10,07,02,10,8.60
2016,10,07,02,11,10.60
2016,10,07,02,12,9.30
2016,10,07,02,13,5.10
2016,10,07,02,14,4.30
2016,10,07,02,15,6.80
2016,10,07,02,16,3.50
2016,10,07,02,17,4.20
2016,10,07,02,18,8.60
2016,10,07,02,19,9.00
2016,10,07,02,20,8.80
2016,10,07,02,21,5.50
2016,10,07,02,22,8.80
2016,10,07,02,23,8.70
2016,10,07,02,24,5.20
2016,10,07,02,25,5.70
2016,10,07,02,26,3.80
2016,10,07,02,27,4.70
2016,10,07,02,28,2.60
2016,10,07,02,29,0.80
2016,10,07,02,30,1.00
2016,10,07,02,31,5.10
2016,10,07,02,32,2.90
2016,10,07,02,33,0.50
2016,10,07,02,34,3.30
2016,10,07,02,35,0.90
2016,10,07,02,36,2.80
2016,10,07,02,37,7.70
2016,10,07,02,38,3.30
2016,10,07,02,39,0.70
2016,10,07,02,40,5.00
2016,10,07,02,41,3.90
2016,10,07,02,42,5.00
2016,10,07,02,43,2.40
2016,10,07,02,44,9.40
2016,10,07,02,45,5.60
2016,10,07,02,46,3.40
2016,10,07,02,47,6.10
2016,10,07,02,48,12.60
2016,10,07,02,49,13.00
2016,10,07,02,50,11.00
2016,10,07,02,51,4.60
2016,10,07,02,52,11.30
2016,10,07,02,53,11.00
2016,10,07,02,54,5.30
2016,10,07,02,55,7.10
2016,10,07,02,56,10.50
2016,10,07,02,57,7.90
2016,10,07,02,58,3.90
2016,10,07,02,59,5.70
2016,10,07,03,00,13.20
2016,10,07,03,01,18.80
2016,10,07,03,02,5.50
2016,10,07,03,03,11.80
2016,10,07,03,04,11.20
2016,10,07,03,05,6.30
2016,10,07,03,06,7.50
2016,10,07,03,07,5.00
2016,10,07,03,08,9.40
2016,10,07,03,09,7.60
2016,10,07,03,10,10.70
2016,10,07,03,11,11.60
2016,10,07,03,12,5.30
2016,10,07,03,13,6.40
2016,10,07,03,14,11.90
2016,10,07,03,15,12.80
2016,10,07,03,16,5.70
2016,10,07,03,17,8.20
2016,10,07,03,18,9.00
2016,10,07,03,19,8.60
2016,10,07,03,20,13.50
2016,10,07,03,21,14.30
2016,10,07,03,22,17.50
2016,10,07,03,23,15.40
2016,10,07,03,24,20.80
2016,10,07,03,25,10.60
2016,10,07,03,26,6.30
2016,10,07,03,27,8.30
2016,10,07,03,28,12.10
2016,10,07,03,29,11.30
2016,10,07,03,30,10.20
2016,10,07,03,31,10.30
2016,10,07,03,32,14.30
2016,10,07,03,33,10.60
2016,10,07,03,34,9.50
2016,10,07,03,35,9.00
2016,10,07,03,36,11.90
2016,10,07,03,37,13.90
2016,10,07,03,38,13.20
2016,10,07,03,39,16.50
2016,10,07,03,40,15.80
2016,10,07,03,41,11.10
2016,10,07,03,42,12.40
2016,10,07,03,43,7.40
2016,10,07,03,44,13.00
2016,10,07,03,45,16.10
2016,10,07,03,46,11.10
2016,10,07,03,47,14.10
2016,10,07,03,48,12.60
2016,10,07,03,49,14.60
2016,10,07,03,50,17.40
2016,10,07,03,51,14.70
2016,10,07,03,52,14.40
2016,10,07,03,53,12.10
2016,10,07,03,54,7.10
2016,10,07,03,55,18.50
2016,10,07,03,56,19.00
2016,10,07,03,57,17.00
2016,10,07,03,58,16.70
2016,10,07,03,59,15.30
2016,10,07,04,00,17.40
2016,10,07,04,01,19.80
2016,10,07,04,02,17.20
2016,10,07,04,03,19.90
2016,10,07,04,04,13.60
2016,10,07,04,08,18.20
2016,10,07,04,09,20.30
2016,10,07,04,10,12.50
2016,10,07,04,11,20.40
2016,10,07,04,12,15.60
2016,10,07,04,13,17.90
2016,10,07,04,14,13.30
2016,10,07,04,15,13.90
2016,10,07,04,16,11.40
2016,10,07,04,17,16.90
2016,10,07,04,18,6.40
2016,10,07,04,19,8.10
2016,10,07,04,20,13.60
2016,10,07,04,21,16.10
2016,10,07,04,22,12.00
2016,10,07,04,23,17.30
2016,10,07,04,24,13.30
2016,10,07,04,25,9.80
2016,10,07,04,26,17.90
2016,10,07,04,27,12.90
2016,10,07,04,28,18.50
2016,10,07,04,29,14.60
2016,10,07,04,30,17.80
2016,10,07,04,31,18.20
2016,10,07,04,32,17.90
2016,10,07,04,33,15.00
2016,10,07,04,34,18.40
2016,10,07,04,35,25.40
2016,10,07,04,36,13.90
2016,10,07,04,37,9.00
2016,10,07,04,38,12.00
2016,10,07,04,39,16.60
2016,10,07,04,40,13.00
2016,10,07,04,41,11.30
2016,10,07,04,42,15.80
2016,10,07,04,43,13.30
2016,10,07,04,44,22.30
2016,10,07,04,45,16.60
2016,10,07,04,46,13.60
2016,10,07,04,47,21.40
2016,10,07,04,48,22.40
2016,10,07,04,49,22.30
2016,10,07,04,50,16.20
2016,10,07,04,51,15.90
2016,10,07,04,52,12.20
2016,10,07,04,53,15.90
2016,10,07,04,54,15.70
2016,10,07,04,55,9.30
2016,10,07,04,56,14.00
2016,10,07,04,57,11.90
2016,10,07,04,58,13.10
2016,10,07,04,59,7.70
2016,10,07,05,00,9.40
2016,10,07,05,01,18.50
2016,10,07,05,02,15.30
2016,10,07,05,03,14.40
2016,10,07,05,04,16.30
2016,10,07,05,05,12.60
2016,10,07,05,06,11.60
2016,10,07,05,07,14.50
2016,10,07,05,08,13.90
2016,10,07,05,09,17.90
2016,10,07,05,10,18.40
2016,10,07,05,11,15.90
2016,10,07,05,12,16.90
2016,10,07,05,13,17.30
2016,10,07,05,14,7.20
2016,10,07,05,15,12.60
2016,10,07,05,16,9.50
2016,10,07,05,17,15.70
2016,10,07,05,18,12.30
2016,10,07,05,19,15.00
2016,10,07,05,20,18.00
2016,10,07,05,21,15.90
2016,10,07,05,22,21.80
2016,10,07,05,23,24.60
2016,10,07,05,24,19.10
2016,10,07,05,25,14.60
2016,10,07,05,26,16.00
2016,10,07,05,27,17.60
2016,10,07,05,28,13.60
2016,10,07,05,29,13.90
2016,10,07,05,30,11.60
2016,10,07,05,31,18.60
2016,10,07,05,32,12.40
2016,10,07,05,33,13.10
2016,10,07,05,34,12.10
2016,10,07,05,35,10.20
2016,10,07,05,36,10.80
2016,10,07,05,37,15.00
2016,10,07,05,38,11.60
2016,10,07,05,39,8.60
2016,10,07,05,40,17.30
2016,10,07,05,41,16.80
2016,10,07,05,42,20.30
2016,10,07,05,43,14.40
2016,10,07,05,44,9.30
2016,10,07,05,45,8.10
2016,10,07,05,46,16.90
2016,10,07,05,47,15.80
2016,10,07,05,48,13.30
2016,10,07,05,49,4.80
2016,10,07,05,50,13.70
2016,10,07,05,51,13.70
2016,10,07,05,52,14.80
2016,10,07,05,53,14.30
2016,10,07,05,54,12.00
2016,10,07,05,55,17.30
2016,10,07,05,56,9.40
2016,10,07,05,57,17.10
2016,10,07,05,58,13.90
2016,10,07,05,59,11.90
2016,10,07,06,00,10.40
2016,10,07,06,01,7.50
2016,10,07,06,02,11.00
2016,10,07,06,03,13.40
2016,10,07,06,04,11.70
2016,10,07,06,05,11.90
2016,10,07,06,06,17.60
2016,10,07,06,07,11.50
2016,10,07,06,08,20.20
2016,10,07,06,09,24.40
2016,10,07,06,10,18.60
2016,10,07,06,11,14.90
2016,10,07,06,12,13.80
2016,10,07,06,13,19.50
2016,10,07,06,14,14.40
2016,10,07,06,15,13.70
2016,10,07,06,16,11.30
2016,10,07,06,17,11.00
2016,10,07,06,18,15.30
2016,10,07,06,19,23.70
2016,10,07,06,20,21.10
2016,10,07,06,21,15.40
2016,10,07,06,22,13.80
2016,10,07,06,23,17.30
2016,10,07,06,24,13.60
2016,10,07,06,25,15.10
2016,10,07,06,26,12.10
2016,10,07,06,27,10.60
2016,10,07,06,28,11.90
2016,10,07,06,29,13.30
2016,10,07,06,30,16.00
2016,10,07,06,31,9.30
2016,10,07,06,32,13.60
2016,10,07,06,33,4.10
2016,10,07,06,34,7.30
2016,10,07,06,35,14.90
2016,10,07,06,36,16.50
2016,10,07,06,37,13.70
2016,10,07,06,38,17.30
2016,10,07,06,39,15.40
2016,10,07,06,40,9.70
2016,10,07,06,41,12.30
2016,10,07,06,42,11.70
2016,10,07,06,43,11.70
2016,10,07,06,44,10.20
2016,10,07,06,45,19.90
2016,10,07,06,46,10.50
2016,10,07,06,47,7.40
2016,10,07,06,48,12.90
2016,10,07,06,49,10.60
2016,10,07,06,50,17.50
2016,10,07,06,51,15.30
2016,10,07,06,52,16.90
2016,10,07,06,53,20.50
2016,10,07,06,54,9.70
2016,10,07,06,55,10.10
2016,10,07,06,56,8.70
2016,10,07,06,57,8.70
2016,10,07,06,58,9.10
2016,10,07,06,59,10.10
2016,10,07,07,00,7.20
2016,10,07,07,01,6.40
2016,10,07,07,02,5.30
2016,10,07,07,03,11.00
2016,10,07,07,04,4.00
2016,10,07,07,05,3.30
2016,10,07,07,06,8.00
2016,10,07,07,07,11.50
2016,10,07,07,08,12.40
2016,10,07,07,09,11.70
2016,10,07,07,10,13.00
2016,10,07,07,11,5.00
2016,10,07,07,12,7.60
2016,10,07,07,13,9.00
2016,10,07,07,14,7.80
2016,10,07,07,15,5.30
2016,10,07,07,16,5.10
2016,10,07,07,17,6.70
2016,10,07,07,18,8.40
2016,10,07,07,19,7.50
2016,10,07,07,20,6.10
2016,10,07,07,21,11.00
2016,10,07,07,22,13.50
2016,10,07,07,23,10.10
2016,10,07,07,24,11.30
2016,10,07,07,25,3.90
2016,10,07,07,26,11.00
2016,10,07,07,27,7.20
2016,10,07,07,28,7.50
2016,10,07,07,29,10.90
2016,10,07,07,30,10.60
2016,10,07,07,31,15.40
2016,10,07,07,32,13.80
2016,10,07,07,33,4.80
2016,10,07,07,34,4.10
2016,10,07,07,35,6.10
2016,10,07,07,36,2.80
2016,10,07,07,37,2.00
2016,10,07,07,38,2.20
2016,10,07,07,39,5.00
2016,10,07,07,40,7.00
2016,10,07,07,41,5.00
2016,10,07,07,42,5.00
2016,10,07,07,43,11.40
2016,10,07,07,44,9.70
2016,10,07,07,45,10.60
2016,10,07,07,46,12.90
2016,10,07,07,47,6.80
2016,10,07,07,48,10.10
2016,10,07,07,49,9.50
2016,10,07,07,50,7.20
2016,10,07,07,51,9.40
2016,10,07,07,52,7.30
2016,10,07,07,53,7.60
2016,10,07,07,54,7.00
2016,10,07,07,55,12.30
2016,10,07,07,56,7.30
2016,10,07,07,57,9.80
2016,10,07,07,58,14.60
2016,10,07,07,59,9.20
2016,10,07,08,00,8.40
2016,10,07,08,01,6.60
2016,10,07,08,02,11.00
2016,10,07,08,03,8.70
2016,10,07,08,04,7.90
2016,10,07,08,05,7.50
2016,10,07,08,06,10.20
2016,10,07,08,07,9.90
2016,10,07,08,08,10.20
2016,10,07,08,09,5.80
2016,10,07,08,10,7.40
2016,10,07,08,11,10.00
2016,10,07,08,12,9.30
2016,10,07,08,13,9.40
2016,10,07,08,14,6.10
2016,10,07,08,15,12.30
2016,10,07,08,16,8.10
2016,10,07,08,17,7.00
2016,10,07,08,18,12.70
2016,10,07,08,19,7.10
2016,10,07,08,20,10.50
2016,10,07,08,21,14.30
2016,10,07,08,22,8.40
2016,10,07,08,23,10.70
2016,10,07,08,24,10.10
2016,10,07,08,25,6.40
2016,10,07,08,26,3.80
2016,10,07,08,27,4.30
2016,10,07,08,28,8.20
2016,10,07,08,29,5.30
2016,10,07,08,30,8.10
2016,10,07,08,31,7.90
2016,10,07,08,32,4.10
2016,10,07,08,33,7.40
2016,10,07,08,34,12.00
2016,10,07,08,35,4.80
2016,10,07,08,36,7.60
2016,10,07,08,37,9.40
2016,10,07,08,38,12.00
2016,10,07,08,39,8.40
2016,10,07,08,40,5.00
2016,10,07,08,41,4.90
2016,10,07,08,42,13.80
2016,10,07,08,43,20.10
2016,10,07,08,44,8.10
2016,10,07,08,45,6.90
2016,10,07,08,46,7.70
2016,10,07,08,47,6.00
2016,10,07,08,48,6.40
2016,10,07,08,49,4.80
2016,10,07,08,50,6.90
2016,10,07,08,51,7.90
2016,10,07,08,52,6.20
2016,10,07,08,53,5.50
2016,10,07,08,54,3.70
2016,10,07,08,55,7.40
2016,10,07,08,56,3.80
2016,10,07,08,57,5.10
2016,10,07,08,58,10.10
2016,10,07,08,59,4.20
2016,10,07,09,00,5.10
2016,10,07,09,01,10.80
2016,10,07,09,02,5.90
2016,10,07,09,03,6.30
2016,10,07,09,04,9.30
2016,10,07,09,05,12.90
2016,10,07,09,06,4.60
2016,10,07,09,07,8.70
2016,10,07,09,08,7.30
2016,10,07,09,09,11.70
2016,10,07,09,10,10.20
2016,10,07,09,11,11.40
2016,10,07,09,12,11.30
2016,10,07,09,13,7.60
2016,10,07,09,14,11.00
2016,10,07,09,15,7.10
2016,10,07,09,16,7.20
2016,10,07,09,17,8.10
2016,10,07,09,18,13.90
2016,10,07,09,19,6.40
2016,10,07,09,20,14.60
2016,10,07,09,21,6.70
2016,10,07,09,22,10.00
2016,10,07,09,23,7.90
2016,10,07,09,24,7.10
2016,10,07,09,25,6.10
2016,10,07,09,26,7.80
2016,10,07,09,27,11.60
2016,10,07,09,28,8.80
2016,10,07,09,29,5.40
2016,10,07,09,30,5.50
2016,10,07,09,31,5.00
2016,10,07,09,32,5.90
2016,10,07,09,33,4.60
2016,10,07,09,34,6.80
2016,10,07,09,35,4.70
2016,10,07,09,36,11.50
2016,10,07,09,37,8.70
2016,10,07,09,38,10.10
2016,10,07,09,39,4.30
2016,10,07,09,40,6.90
2016,10,07,09,41,10.00
2016,10,07,09,42,3.90
2016,10,07,09,43,5.90
2016,10,07,09,44,10.70
2016,10,07,09,45,11.40
2016,10,07,09,46,11.10
2016,10,07,09,47,6.20
2016,10,07,09,48,8.20
2016,10,07,09,49,7.80
2016,10,07,09,50,8.50
2016,10,07,09,51,2.40
2016,10,07,09,52,2.90
2016,10,07,09,53,2.10
2016,10,07,09,54,11.50
2016,10,07,09,55,9.00
2016,10,07,09,56,9.70
2016,10,07,09,57,3.50
2016,10,07,09,58,5.30
2016,10,07,09,59,5.60
2016,10,07,10,00,8.70
2016,10,07,10,01,3.50
2016,10,07,10,02,10.00
2016,10,07,10,03,7.60
2016,10,07,10,04,6.30
2016,10,07,10,05,4.20
2016,10,07,10,06,6.00
2016,10,07,10,07,3.90
2016,10,07,10,08,2.00
2016,10,07,10,09,8.00
2016,10,07,10,10,5.70
2016,10,07,10,11,5.00
2016,10,07,10,12,3.60
2016,10,07,10,13,5.10
2016,10,07,10,14,5.60
2016,10,07,10,15,4.40
2016,10,07,10,16,3.70
2016,10,07,10,17,7.20
2016,10,07,10,18,6.60
2016,10,07,10,19,6.30
2016,10,07,10,20,5.90
2016,10,07,10,21,4.70
2016,10,07,10,22,5.60
2016,10,07,10,23,8.40
2016,10,07,10,24,6.80
2016,10,07,10,25,10.50
2016,10,07,10,26,8.30
2016,10,07,10,27,10.50
2016,10,07,10,28,4.10
2016,10,07,10,29,2.20
2016,10,07,10,30,10.70
2016,10,07,10,31,7.00
2016,10,07,10,32,7.10
2016,10,07,10,33,6.80
2016,10,07,10,34,6.40
2016,10,07,10,35,2.30
2016,10,07,10,36,6.10
2016,10,07,10,37,7.80
2016,10,07,10,38,10.30
2016,10,07,10,39,8.00
2016,10,07,10,40,9.40
2016,10,07,10,41,5.20
2016,10,07,10,42,5.10
2016,10,07,10,43,6.20
2016,10,07,10,44,5.40
2016,10,07,10,45,7.90
2016,10,07,10,46,5.50
2016,10,07,10,47,7.50
2016,10,07,10,48,3.90
2016,10,07,10,49,5.30
2016,10,07,10,50,12.80
2016,10,07,10,51,8.10
2016,10,07,10,52,10.40
2016,10,07,10,53,16.60
2016,10,07,10,54,7.00
2016,10,07,10,55,5.60
2016,10,07,10,56,15.90
2016,10,07,10,57,5.20
2016,10,07,10,58,4.60
2016,10,07,10,59,6.10
2016,10,07,11,00,3.20
2016,10,07,11,01,4.60
2016,10,07,11,02,7.50
2016,10,07,11,03,6.40
2016,10,07,11,04,5.20
2016,10,07,11,05,5.40
2016,10,07,11,06,10.00
2016,10,07,11,07,7.20
2016,10,07,11,08,8.00
2016,10,07,11,09,8.20
2016,10,07,11,10,7.90
2016,10,07,11,11,3.70
2016,10,07,11,12,4.30
2016,10,07,11,13,0.30
2016,10,07,11,14,2.20
2016,10,07,11,15,2.50
2016,10,07,11,16,4.60
2016,10,07,11,17,2.50
2016,10,07,11,18,4.70
2016,10,07,11,19,4.00
2016,10,07,11,20,7.10
2016,10,07,11,21,1.80
2016,10,07,11,22,1.90
2016,10,07,11,23,7.50
2016,10,07,11,24,4.50
2016,10,07,11,25,1.90
2016,10,07,11,26,9.80
2016,10,07,11,27,8.90
2016,10,07,11,28,6.10
2016,10,07,11,29,6.10
2016,10,07,11,30,4.80
2016,10,07,11,31,4.60
2016,10,07,11,32,8.10
2016,10,07,11,33,6.70
2016,10,07,11,34,5.10
2016,10,07,11,35,7.60
2016,10,07,11,36,4.90
2016,10,07,11,37,2.80
2016,10,07,11,38,3.00
2016,10,07,11,39,10.40
2016,10,07,11,40,2.30
2016,10,07,11,41,3.80
2016,10,07,11,42,5.70
2016,10,07,11,43,6.00
2016,10,07,11,44,3.80
2016,10,07,11,45,0.80
2016,10,07,11,46,4.00
2016,10,07,11,47,5.60
2016,10,07,11,48,5.70
2016,10,07,11,49,8.00
2016,10,07,11,50,9.10
2016,10,07,11,51,6.80
2016,10,07,11,52,10.80
2016,10,07,11,53,10.80
2016,10,07,11,54,4.10
2016,10,07,11,55,5.40
2016,10,07,11,56,7.40
2016,10,07,11,57,2.50
2016,10,07,11,58,0.80
2016,10,07,11,59,3.50
2016,10,07,12,00,8.70
2016,10,07,12,01,8.10
2016,10,07,12,02,5.40
2016,10,07,12,03,9.70
2016,10,07,12,04,11.80
2016,10,07,12,05,3.00
2016,10,07,12,06,6.10
2016,10,07,12,07,4.40
2016,10,07,12,08,7.40
2016,10,07,12,09,7.20
2016,10,07,12,10,3.90
2016,10,07,12,11,3.80
2016,10,07,12,12,2.20
2016,10,07,12,13,2.80
2016,10,07,12,14,0.90
2016,10,07,12,15,2.10
2016,10,07,12,16,3.00
2016,10,07,12,17,6.30
2016,10,07,12,18,5.80
2016,10,07,12,19,3.40
2016,10,07,12,20,8.70
2016,10,07,12,21,6.70
2016,10,07,12,22,6.20
2016,10,07,12,23,5.70
2016,10,07,12,24,5.10
2016,10,07,12,25,3.00
2016,10,07,12,26,3.50
2016,10,07,12,27,4.30
2016,10,07,12,28,11.10
2016,10,07,12,29,2.60
2016,10,07,12,30,3.10
2016,10,07,12,31,4.30
2016,10,07,12,32,5.10
2016,10,07,12,33,2.40
2016,10,07,12,34,4.10
2016,10,07,12,35,12.30
2016,10,07,12,36,16.50
2016,10,07,12,37,7.60
2016,10,07,12,38,1.10
2016,10,07,12,39,3.10
2016,10,07,12,40,3.30
2016,10,07,12,41,12.00
2016,10,07,12,42,3.30
2016,10,07,12,43,3.30
2016,10,07,12,44,6.50
2016,10,07,12,45,4.70
2016,10,07,12,46,6.50
2016,10,07,12,47,4.90
2016,10,07,12,48,6.90
2016,10,07,12,49,4.10
2016,10,07,12,50,4.10
2016,10,07,12,51,5.30
2016,10,07,12,52,5.60
2016,10,07,12,53,6.00
2016,10,07,12,54,7.00
2016,10,07,12,55,7.20
2016,10,07,12,56,4.70
2016,10,07,12,57,4.80
2016,10,07,12,58,4.60
2016,10,07,12,59,4.00
2016,10,07,13,00,1.90
2016,10,07,13,01,0.40
2016,10,07,13,02,5.10
2016,10,07,13,03,4.20
2016,10,07,13,04,3.80
2016,10,07,13,05,1.80
2016,10,07,13,06,6.10
2016,10,07,13,07,6.70
2016,10,07,13,08,11.30
2016,10,07,13,09,7.10
2016,10,07,13,10,2.50
2016,10,07,13,11,7.30
2016,10,07,13,12,7.10
2016,10,07,13,13,13.70
2016,10,07,13,14,5.70
2016,10,07,13,15,5.40
2016,10,07,13,16,8.90
2016,10,07,13,17,5.10
2016,10,07,13,18,7.10
2016,10,07,13,19,7.50
2016,10,07,13,20,6.50
2016,10,07,13,21,8.60
2016,10,07,13,22,8.00
2016,10,07,13,23,8.00
2016,10,07,13,24,6.90
2016,10,07,13,25,9.70
2016,10,07,13,26,13.30
2016,10,07,13,27,7.80
2016,10,07,13,28,13.00
2016,10,07,13,29,10.40
2016,10,07,13,30,8.90
2016,10,07,13,31,7.70
2016,10,07,13,32,4.50
2016,10,07,13,33,5.00
2016,10,07,13,34,14.10
2016,10,07,13,35,7.50
2016,10,07,13,36,2.70
2016,10,07,13,37,2.90
2016,10,07,13,38,7.90
2016,10,07,13,39,2.80
2016,10,07,13,40,11.00
2016,10,07,13,41,13.50
2016,10,07,13,42,5.30
2016,10,07,13,43,2.10
2016,10,07,13,44,4.50
2016,10,07,13,45,9.30
2016,10,07,13,46,9.50
2016,10,07,13,47,9.30
2016,10,07,13,48,9.40
2016,10,07,13,49,8.60
2016,10,07,13,50,5.90
2016,10,07,13,51,1.90
2016,10,07,13,52,7.20
2016,10,07,13,53,3.80
2016,10,07,13,54,2.00
2016,10,07,13,55,7.60
2016,10,07,13,56,4.30
2016,10,07,13,57,9.40
2016,10,07,13,58,5.40
2016,10,07,13,59,0.40
2016,10,07,14,00,6.70
2016,10,07,14,01,6.40
2016,10,07,14,02,7.00
2016,10,07,14,03,5.40
2016,10,07,14,04,2.70
2016,10,07,14,05,4.70
2016,10,07,14,06,5.80
2016,10,07,14,07,5.80
2016,10,07,14,08,7.90
2016,10,07,14,09,7.50
2016,10,07,14,10,8.00
2016,10,07,14,11,3.50
2016,10,07,14,12,5.50
2016,10,07,14,13,2.30
2016,10,07,14,14,8.30
2016,10,07,14,15,13.40
2016,10,07,14,16,5.70
2016,10,07,14,17,3.40
2016,10,07,14,18,7.60
2016,10,07,14,19,8.70
2016,10,07,14,20,4.90
2016,10,07,14,21,3.40
2016,10,07,14,22,2.70
2016,10,07,14,23,1.00
2016,10,07,14,24,1.50
2016,10,07,14,25,2.10
2016,10,07,14,26,5.20
2016,10,07,14,27,5.50
2016,10,07,14,28,4.10
2016,10,07,14,29,6.10
2016,10,07,14,30,2.20
2016,10,07,14,31,4.70
2016,10,07,14,32,7.00
2016,10,07,14,33,7.80
2016,10,07,14,34,6.40
2016,10,07,14,35,5.70
2016,10,07,14,36,6.40
2016,10,07,14,37,13.40
2016,10,07,14,38,6.40
2016,10,07,14,39,9.70
2016,10,07,14,40,7.70
2016,10,07,14,41,9.00
2016,10,07,14,42,3.60
2016,10,07,14,43,2.90
2016,10,07,14,44,5.00
2016,10,07,14,45,7.00
2016,10,07,14,46,5.90
2016,10,07,14,47,5.80
2016,10,07,14,48,8.70
2016,10,07,14,49,6.70
2016,10,07,14,50,6.40
2016,10,07,14,51,5.20
2016,10,07,14,52,2.60
2016,10,07,14,53,3.90
2016,10,07,14,54,3.00
2016,10,07,14,55,7.80
2016,10,07,14,56,5.90
2016,10,07,14,57,5.50
2016,10,07,14,58,3.30
2016,10,07,14,59,4.80
2016,10,07,15,00,3.00
2016,10,07,15,01,4.80
2016,10,07,15,02,2.80
2016,10,07,15,03,8.40
2016,10,07,15,04,7.80
2016,10,07,15,05,2.10
2016,10,07,15,06,3.50
2016,10,07,15,07,5.20
2016,10,07,15,08,9.60
2016,10,07,15,09,3.90
2016,10,07,15,10,1.20
2016,10,07,15,11,8.00
2016,10,07,15,12,6.30
2016,10,07,15,13,4.30
2016,10,07,15,14,5.00
2016,10,07,15,15,1.10
2016,10,07,15,16,5.00
2016,10,07,15,17,2.80
2016,10,07,15,18,0.40
2016,10,07,15,19,9.70
2016,10,07,15,20,1.90
2016,10,07,15,21,0.10
2016,10,07,15,22,3.90
2016,10,07,15,23,1.40
2016,10,07,15,24,1.00
2016,10,07,15,25,2.20
2016,10,07,15,26,0.90
2016,10,07,15,27,1.80
2016,10,07,15,28,2.40
2016,10,07,15,29,3.00
2016,10,07,15,30,3.10
2016,10,07,15,31,1.00
2016,10,07,15,32,3.60
2016,10,07,15,33,0.20
2016,10,07,15,34,0.80
2016,10,07,15,35,2.20
2016,10,07,15,36,0.80
2016,10,07,15,37,1.00
2016,10,07,15,38,0.30
2016,10,07,15,39,0.50
2016,10,07,15,40,3.10
2016,10,07,15,41,2.00
2016,10,07,15,42,1.60
2016,10,07,15,43,0.80
2016,10,07,15,44,2.90
2016,10,07,15,45,4.10
2016,10,07,15,46,6.60
2016,10,07,15,47,2.70
2016,10,07,15,48,2.00
2016,10,07,15,49,5.70
2016,10,07,15,50,3.40
2016,10,07,15,51,5.10
2016,10,07,15,52,3.40
2016,10,07,15,53,1.20
2016,10,07,15,54,1.50
2016,10,07,15,55,3.10
2016,10,07,15,56,3.30
2016,10,07,15,57,3.50
2016,10,07,15,58,4.50
2016,10,07,15,59,3.10
2016,10,07,16,00,1.10
2016,10,07,16,01,1.90
2016,10,07,16,02,0.70
2016,10,07,16,03,2.60
2016,10,07,16,04,2.20
2016,10,07,16,05,0.40
2016,10,07,16,06,0.20
2016,10,07,16,07,0.00
2016,10,07,16,08,0.40
2016,10,07,16,09,2.80
2016,10,07,16,10,3.10
2016,10,07,16,11,2.80
2016,10,07,16,12,3.60
2016,10,07,16,13,11.10
2016,10,07,16,14,3.20
2016,10,07,16,15,1.50
2016,10,07,16,16,0.10
2016,10,07,16,17,0.20
2016,10,07,16,18,2.00
2016,10,07,16,19,0.40
2016,10,07,16,20,4.70
2016,10,07,16,21,2.10
2016,10,07,16,22,5.70
2016,10,07,16,23,2.10
2016,10,07,16,24,1.00
2016,10,07,16,25,5.40
2016,10,07,16,26,8.90
2016,10,07,16,27,5.70
2016,10,07,16,28,4.60
2016,10,07,16,29,6.00
2016,10,07,16,30,1.90
2016,10,07,16,31,5.20
2016,10,07,16,32,5.20
2016,10,07,16,33,5.70
2016,10,07,16,34,7.20
2016,10,07,16,35,5.80
2016,10,07,16,36,7.20
2016,10,07,16,37,4.10
2016,10,07,16,38,8.60
2016,10,07,16,39,6.30
2016,10,07,16,40,2.50
2016,10,07,16,41,6.80
2016,10,07,16,42,4.50
2016,10,07,16,43,7.60
2016,10,07,16,44,7.20
2016,10,07,16,45,7.80
2016,10,07,16,46,9.50
2016,10,07,16,47,5.20
2016,10,07,16,48,7.70
2016,10,07,16,49,9.50
2016,10,07,16,50,8.60
2016,10,07,16,51,1.60
2016,10,07,16,52,1.30
2016,10,07,16,53,1.10
2016,10,07,16,54,3.40
2016,10,07,16,55,3.60
2016,10,07,16,56,4.10
2016,10,07,16,57,6.70
2016,10,07,16,58,6.90
2016,10,07,16,59,6.90
2016,10,07,17,00,4.10
2016,10,07,17,01,3.40
2016,10,07,17,02,3.10
2016,10,07,17,03,2.90
2016,10,07,17,04,5.70
2016,10,07,17,05,6.80
2016,10,07,17,06,7.90
2016,10,07,17,07,4.90
2016,10,07,17,08,1.80
2016,10,07,17,09,6.40
2016,10,07,17,10,5.70
2016,10,07,17,11,5.60
2016,10,07,17,12,4.70
2016,10,07,17,13,3.10
2016,10,07,17,14,0.50
2016,10,07,17,15,1.80
2016,10,07,17,16,1.40
2016,10,07,17,17,0.20
2016,10,07,17,18,0.30
2016,10,07,17,19,3.30
2016,10,07,17,20,2.20
2016,10,07,17,21,1.20
2016,10,07,17,22,2.80
2016,10,07,17,23,0.00
2016,10,07,17,24,0.00
2016,10,07,17,25,0.00
2016,10,07,17,26,0.30
2016,10,07,17,27,0.10
2016,10,07,17,28,0.00
2016,10,07,17,29,0.20
2016,10,07,17,30,0.00
2016,10,07,17,31,0.00
2016,10,07,17,32,0.20
2016,10,07,17,33,1.10
2016,10,07,17,34,1.00
2016,10,07,17,35,0.80
2016,10,07,17,36,1.30
2016,10,07,17,37,0.20
2016,10,07,17,38,0.50
2016,10,07,17,39,0.20
2016,10,07,17,40,0.00
2016,10,07,17,41,0.20
2016,10,07,17,42,2.10
2016,10,07,17,43,2.50
2016,10,07,17,44,4.70
2016,10,07,17,45,1.50
2016,10,07,17,46,1.20
2016,10,07,17,47,0.20
2016,10,07,17,48,0.00
2016,10,07,17,49,0.00
2016,10,07,17,50,0.30
2016,10,07,17,51,0.10
2016,10,07,17,52,0.50